Waarnemingen

Advertentie
Mijn weer
Lycksele, Zweden (2261): temperatuur & dauwpunt: 09.08.2020 16:00:00 - 15.08.2020 16:00:00 (CEST)Lycksele, Zweden (2261): windsnelheid & windstoten: 09.08.2020 16:00:00 - 15.08.2020 16:00:00 (CEST)Lycksele, Zweden (2261): windrichting: 09.08.2020 16:00:00 - 15.08.2020 16:00:00 (CEST)Lycksele, Zweden (2261): luchtdruk: 09.08.2020 16:00:00 - 15.08.2020 16:00:00 (CEST)Lycksele, Zweden (2261): zicht: 09.08.2020 16:00:00 - 15.08.2020 16:00:00 (CEST)Lycksele, Zweden (2261): neerslag: 09.08.2020 16:00:00 - 15.08.2020 16:00:00 (CEST)
Datum & Tijd tt [°C] td [°C] ff [km/u] ff [kn] fx [km/u] fx [kn] dd ppp [hPa] vv [km] rr [mm]
15.08.2020 16:00:00 - - - - - - - - - -
15.08.2020 15:00:00 19,2 10,2 15 8 36 20 W 1010,1 46 0,0
15.08.2020 14:00:00 18,7 10,5 20 11 35 19 WNW 1010,3 42 0,0
15.08.2020 13:00:00 18,5 9,6 11 6 32 17 W 1010,5 39 0,0
15.08.2020 12:00:00 17,7 9,8 14 7 32 17 WNW 1010,5 40 0,0
15.08.2020 11:00:00 17,1 10,2 12 7 27 15 WNW 1010,4 44 0,0
15.08.2020 10:00:00 17,5 9,6 14 8 26 14 WNW 1010,4 50 0,0
15.08.2020 09:00:00 16,0 8,5 9 5 22 12 WNW 1010,5 41 0,0
15.08.2020 08:00:00 14,8 8,7 5 3 10 5 W 1010,6 50 0,0
15.08.2020 07:00:00 12,3 7,8 0 0 6 3 N 1010,8 50 0,0
15.08.2020 06:00:00 9,8 7,6 0 0 5 3 N 1011,1 50 0,0
15.08.2020 05:00:00 8,4 7,3 0 0 8 4 N 1011,0 50 0,0
15.08.2020 04:00:00 7,6 7,0 4 2 9 5 WNW 1011,0 49 0,0
15.08.2020 03:00:00 8,8 8,2 0 0 4 2 N 1010,8 50 0,0
15.08.2020 02:00:00 10,6 8,5 0 0 13 7 N 1010,5 50 0,0
15.08.2020 01:00:00 12,1 8,8 4 2 14 7 WNW 1010,5 50 0,0
15.08.2020 00:00:00 12,5 8,8 5 3 12 6 W 1010,6 50 0,0
14.08.2020 23:00:00 11,9 9,3 2 1 6 3 WNW 1010,7 50 0,0
14.08.2020 22:00:00 13,1 9,4 3 1 11 6 WNW 1010,5 50 0,0
14.08.2020 21:00:00 14,8 9,4 4 2 9 5 W 1010,4 50 0,0
14.08.2020 20:00:00 16,2 9,6 0 0 25 14 N 1010,3 50 0,0
14.08.2020 19:00:00 18,8 10,1 14 7 25 13 W 1010,0 49 0,0
14.08.2020 18:00:00 19,9 10,6 11 6 26 14 WNW 1009,7 46 0,0
14.08.2020 17:00:00 20,2 11,4 12 7 31 17 WNW 1009,8 43 0,0
14.08.2020 16:00:00 19,5 11,8 14 8 24 13 WNW 1009,9 50 0,0
14.08.2020 15:00:00 20,2 11,1 9 5 20 11 W 1009,8 48 0,0
14.08.2020 14:00:00 20,5 12,0 8 4 16 9 WNW 1010,1 50 0,0
14.08.2020 13:00:00 19,3 12,8 6 4 17 9 NW 1010,2 50 0,0
14.08.2020 12:00:00 19,5 12,0 7 4 16 8 NNW 1010,2 50 0,0
14.08.2020 11:00:00 19,5 11,8 10 5 25 13 NNW 1010,3 50 0,0
14.08.2020 10:00:00 19,8 13,3 9 5 21 12 NW 1010,4 33 0,0
14.08.2020 09:00:00 17,7 13,0 10 5 16 9 WNW 1010,8 37 0,0
14.08.2020 08:00:00 15,9 13,2 5 3 9 5 WNW 1011,2 47 0,0
14.08.2020 07:00:00 14,8 12,8 3 2 8 5 NNW 1011,7 45 0,0
14.08.2020 06:00:00 14,2 13,2 0 0 5 3 N 1011,6 37 0,0
14.08.2020 05:00:00 14,1 13,3 4 2 6 3 ZZO 1011,6 35 0,0
14.08.2020 04:00:00 13,5 12,9 0 0 5 3 N 1012,1 16 0,0
14.08.2020 03:00:00 13,9 12,5 3 1 7 4 ZZW 1012,3 27 0,0
14.08.2020 02:00:00 13,6 12,5 3 1 5 3 ZZO 1012,7 19 0,1
14.08.2020 01:00:00 13,3 12,0 0 0 6 3 N 1012,9 39 0,0
14.08.2020 00:00:00 13,0 11,7 4 2 8 5 Z 1013,0 46 0,0
13.08.2020 23:00:00 12,3 11,8 4 2 6 4 ZZO 1013,2 34 0,0
13.08.2020 22:00:00 13,2 12,1 0 0 5 3 N 1013,5 41 0,0
13.08.2020 21:00:00 14,9 12,4 2 1 6 3 Z 1013,6 50 0,0
13.08.2020 20:00:00 18,4 11,7 0 0 10 5 N 1013,5 50 0,0
13.08.2020 19:00:00 19,3 12,6 5 3 8 4 ZZO 1013,7 45 0,0
13.08.2020 18:00:00 18,6 12,6 3 1 11 6 Z 1014,0 46 0,0
13.08.2020 17:00:00 20,2 10,6 4 2 15 8 ZW 1014,2 44 0,0
13.08.2020 16:00:00 19,2 11,5 7 4 19 11 ZZW 1014,9 46 0,0
13.08.2020 15:00:00 18,3 11,4 9 5 20 11 Z 1015,6 38 0,0
13.08.2020 14:00:00 17,4 12,1 5 3 23 12 ZW 1016,4 39 0,0
13.08.2020 13:00:00 17,7 11,0 11 6 18 10 Z 1016,8 36 0,0
13.08.2020 12:00:00 16,6 11,5 3 2 10 5 ZZO 1017,0 50 0,0
13.08.2020 11:00:00 15,4 12,3 4 2 8 5 NNW 1017,5 47 0,0
13.08.2020 10:00:00 14,3 12,0 4 2 8 4 ZZO 1017,8 47 0,0
13.08.2020 09:00:00 13,1 12,2 0 0 6 4 N 1018,1 11 0,0
13.08.2020 08:00:00 12,8 11,9 3 2 8 4 Z 1018,3 18 0,0
13.08.2020 07:00:00 12,2 12,0 3 2 7 4 ZZW 1018,3 7 0,0
13.08.2020 06:00:00 12,4 12,2 3 2 5 3 Z 1018,4 3,2 0,0
13.08.2020 05:00:00 12,4 12,2 3 1 5 3 ZW 1018,4 0,8 0,0
13.08.2020 04:00:00 12,6 12,4 0 0 6 3 N 1018,5 0,6 0,0
13.08.2020 03:00:00 12,3 12,1 3 2 6 3 ZW 1018,9 1,1 0,0
13.08.2020 02:00:00 11,9 11,7 4 2 6 4 ZW 1019,0 8 0,0
13.08.2020 01:00:00 10,6 10,4 0 0 3 2 N 1019,2 27 0,0
13.08.2020 00:00:00 9,5 9,2 0 0 4 2 N 1019,3 8 0,0
12.08.2020 23:00:00 11,0 10,7 0 0 4 2 N 1018,9 21 0,0
12.08.2020 22:00:00 11,9 11,3 0 0 5 3 N 1018,6 34 0,0
12.08.2020 21:00:00 13,3 12,0 0 0 6 4 N 1018,5 46 0,0
12.08.2020 20:00:00 16,3 12,7 0 0 13 7 N 1018,2 50 0,0
12.08.2020 19:00:00 17,7 12,4 4 2 8 4 N 1018,1 50 0,0
12.08.2020 18:00:00 17,9 12,1 4 2 15 8 O 1018,2 48 0,0
12.08.2020 17:00:00 18,9 11,7 8 4 13 7 NNO 1018,0 47 0,0
12.08.2020 16:00:00 20,0 10,1 6 3 13 7 N 1018,0 42 0,0
12.08.2020 15:00:00 18,4 10,2 4 2 13 7 O 1018,6 47 0,0
12.08.2020 14:00:00 18,3 11,4 6 3 12 7 OZO 1019,0 36 0,0
12.08.2020 13:00:00 17,8 12,3 4 2 9 5 Z 1019,6 36 0,0
12.08.2020 12:00:00 16,5 11,8 2 1 10 5 ZW 1019,9 45 0,0
12.08.2020 11:00:00 15,5 12,6 7 4 13 7 OZO 1020,0 50 0,0
12.08.2020 10:00:00 14,1 12,5 10 5 14 7 ZO 1020,4 50 0,0
12.08.2020 09:00:00 13,6 11,6 10 5 14 7 ZO 1020,6 43 0,0
12.08.2020 08:00:00 13,2 11,4 4 2 6 3 ZZO 1021,2 50 0,0
12.08.2020 07:00:00 12,6 12,0 3 2 9 5 ZZO 1021,5 50 0,0
12.08.2020 06:00:00 12,1 11,6 9 5 15 8 ZO 1021,7 25 0,4
12.08.2020 05:00:00 11,6 11,0 2 1 7 4 ZO 1022,1 7 1,0
12.08.2020 04:00:00 12,4 10,1 6 3 14 7 ZZO 1022,6 50 0,0
12.08.2020 03:00:00 12,7 10,4 8 5 13 7 ZZO 1022,7 50 0,0
12.08.2020 02:00:00 12,9 10,8 8 4 10 6 ZZO 1023,3 50 0,0
12.08.2020 01:00:00 12,4 10,6 4 2 7 4 ZZO 1023,8 50 0,0
12.08.2020 00:00:00 12,0 10,1 3 2 11 6 ZZO 1023,9 50 0,0
11.08.2020 23:00:00 12,7 10,4 4 2 11 6 ZZO 1023,8 50 0,0
11.08.2020 22:00:00 14,2 11,0 6 4 10 5 ZZO 1023,7 50 0,0
11.08.2020 21:00:00 16,6 10,7 4 2 12 6 Z 1023,3 50 0,0
11.08.2020 20:00:00 18,5 10,6 5 3 8 4 ZO 1023,3 50 0,0
11.08.2020 19:00:00 18,4 11,2 3 1 9 5 ZZO 1023,6 50 0,0
11.08.2020 18:00:00 19,8 8,8 5 3 11 6 Z 1023,9 47 0,0
11.08.2020 17:00:00 20,1 8,1 5 3 18 10 ZZO 1024,1 48 0,0
11.08.2020 16:00:00 21,0 7,6 5 3 18 10 Z 1024,4 40 0,0
11.08.2020 15:00:00 20,2 7,9 5 3 11 6 OZO 1025,0 42 0,0
11.08.2020 14:00:00 20,0 7,7 8 4 15 8 Z 1025,5 41 0,0
11.08.2020 13:00:00 20,1 8,1 9 5 18 10 Z 1025,7 46 0,0
11.08.2020 12:00:00 19,1 8,1 6 4 18 10 Z 1026,2 41 0,0
11.08.2020 11:00:00 18,7 7,5 10 5 16 9 ZO 1026,3 44 0,0
11.08.2020 10:00:00 17,8 6,9 7 4 14 8 ZZW 1026,7 44 0,0
11.08.2020 09:00:00 15,7 8,2 6 4 10 5 OZO 1027,2 42 0,0
11.08.2020 08:00:00 11,5 11,3 0 0 3 2 N 1028,1 42 0,0
11.08.2020 07:00:00 8,4 8,3 0 0 3 2 N 1028,6 0,2 0,0
11.08.2020 06:00:00 7,1 7,0 3 2 5 3 WZW 1028,9 0,2 0,0
11.08.2020 05:00:00 5,7 5,6 0 0 3 1 N 1029,1 0,3 0,0
11.08.2020 04:00:00 4,6 4,5 0 0 3 2 N 1029,2 0,4 0,0
11.08.2020 03:00:00 4,8 4,5 0 0 2 1 N 1029,0 50 0,0
11.08.2020 02:00:00 6,1 5,7 0 0 3 1 N 1028,8 30 0,0
11.08.2020 01:00:00 7,8 7,0 0 0 8 4 N 1028,3 44 0,0
11.08.2020 00:00:00 10,9 9,0 6 4 12 6 ZZO 1027,6 50 0,0
10.08.2020 23:00:00 11,0 8,7 7 4 10 5 ZZO 1027,2 50 0,0
10.08.2020 22:00:00 10,6 8,4 0 0 13 7 N 1027,0 41 0,0
10.08.2020 21:00:00 15,5 7,3 9 5 13 7 OZO 1026,2 50 0,0
10.08.2020 20:00:00 17,3 7,1 7 4 13 7 O 1025,5 45 0,0
10.08.2020 19:00:00 17,8 9,2 0 0 7 4 N 1025,2 42 0,0
10.08.2020 18:00:00 19,2 5,6 2 1 9 5 W 1024,9 45 0,0
10.08.2020 17:00:00 19,1 5,5 5 3 13 7 WNW 1025,1 45 0,0
10.08.2020 16:00:00 18,9 5,0 4 2 14 8 NNW 1025,3 38 0,0
10.08.2020 15:00:00 18,5 4,3 4 2 17 9 NW 1025,5 50 0,0
10.08.2020 14:00:00 18,0 4,9 5 3 16 9 N 1025,6 40 0,0
10.08.2020 13:00:00 17,1 5,1 7 4 16 8 NO 1025,8 45 0,0
10.08.2020 12:00:00 16,7 5,0 6 3 14 8 NW 1025,7 41 0,0
10.08.2020 11:00:00 16,0 5,0 8 4 16 8 NNW 1025,8 43 0,0
10.08.2020 10:00:00 15,0 6,8 8 4 13 7 NNW 1026,0 50 0,0
10.08.2020 09:00:00 13,6 6,9 8 5 17 9 N 1026,3 41 0,0
10.08.2020 08:00:00 11,9 7,2 9 5 16 9 NNW 1026,5 40 0,0
10.08.2020 07:00:00 10,6 7,1 4 2 10 5 WNW 1026,9 37 0,0
10.08.2020 06:00:00 7,3 6,6 2 1 6 3 WZW 1027,2 35 0,0
10.08.2020 05:00:00 4,3 3,9 3 2 12 7 W 1027,3 32 0,0
10.08.2020 04:00:00 6,0 5,6 7 4 12 6 WZW 1026,9 41 0,0
10.08.2020 03:00:00 5,6 5,3 3 1 9 5 W 1026,6 33 0,0
10.08.2020 02:00:00 6,4 5,8 0 0 8 4 N 1026,3 50 0,0
10.08.2020 01:00:00 7,4 6,0 0 0 11 6 N 1025,6 50 0,0
10.08.2020 00:00:00 8,7 6,8 8 4 11 6 WNW 1025,3 50 0,0
09.08.2020 23:00:00 10,9 6,6 3 2 21 11 WNW 1024,7 50 0,0
09.08.2020 22:00:00 13,4 5,8 14 7 21 12 NW 1024,0 50 0,0
09.08.2020 21:00:00 14,1 6,7 11 6 23 12 NW 1023,4 50 0,0
09.08.2020 20:00:00 16,1 6,2 12 7 29 16 NW 1022,9 50 0,0
09.08.2020 19:00:00 16,6 5,5 18 10 31 17 NW 1022,8 50 0,0
09.08.2020 18:00:00 16,9 5,5 16 9 34 18 NW 1022,6 45 0,0
09.08.2020 17:00:00 17,7 3,9 18 10 36 20 NNW 1022,2 50 0,0
09.08.2020 16:00:00 17,3 4,6 22 12 39 21 NW 1022,3 46 0,0

tt = temperatuur
td = dauwpunt
ff = windsnelheid
fx = windstoten
dd = windrichting
ppp = luchtdruk
vv = zicht
rr = neerslag

Weerstations in de omgeving